| time (UTC) | temp F | wind direction | speed MPH | gust MPH | rain 1hr in | rain 24hr in | rain mn in | humidity % | barometer mb |
| 20260504010605 | 51 | 169 | 0.0 | 0.0 | 0.00 | 0.00 | 0.00 | 64 | 1015.3 |
| 20260504010002 | 52 | 169 | 0.0 | 0.0 | 0.00 | 0.00 | 0.00 | 63 | 1015.2 |
| 20260504005508 | 52 | 169 | 0.0 | 0.0 | 0.00 | 0.00 | 0.00 | 62 | 1015.1 |
| 20260504005105 | 53 | 169 | 0.0 | 0.0 | 0.00 | 0.00 | 0.00 | 61 | 1015.2 |
| 20260504004502 | 53 | 169 | 0.0 | 0.0 | 0.00 | 0.00 | 0.00 | 59 | 1015.1 |
| 20260504004009 | 54 | 169 | 0.0 | 0.0 | 0.00 | 0.00 | 0.00 | 58 | 1015.0 |
| 20260504003604 | 54 | 169 | 0.0 | 0.0 | 0.00 | 0.00 | 0.00 | 57 | 1015.1 |
| 20260504003003 | 55 | 169 | 0.0 | 0.0 | 0.00 | 0.00 | 0.00 | 56 | 1015.0 |
| 20260504002509 | 56 | 169 | 0.0 | 0.0 | 0.00 | 0.00 | 0.00 | 54 | 1015.0 |
| 20260504002102 | 56 | 169 | 0.0 | 0.0 | 0.00 | 0.00 | 0.00 | 53 | 1014.9 |
| 20260504001502 | 57 | 169 | 0.0 | 0.0 | 0.00 | 0.00 | 0.00 | 51 | 1014.9 |
| 20260504001009 | 57 | 169 | 0.0 | 0.0 | 0.00 | 0.00 | 0.00 | 50 | 1014.8 |
| 20260504000604 | 58 | 169 | 0.0 | 0.0 | 0.00 | 0.00 | 0.00 | 49 | 1014.8 |
| 20260504000008 | 58 | 169 | 0.0 | 0.0 | 0.00 | 0.00 | 0.00 | 47 | 1014.8 |
| 20260503235510 | 59 | 169 | 0.0 | 0.0 | 0.00 | 0.00 | 0.00 | 46 | 1014.8 |
| 20260503235104 | 59 | 169 | 0.0 | 0.0 | 0.00 | 0.00 | 0.00 | 45 | 1014.9 |
| 20260503234502 | 60 | 169 | 0.0 | 0.0 | 0.00 | 0.00 | 0.00 | 44 | 1014.8 |
| 20260503234009 | 60 | 169 | 0.0 | 0.0 | 0.00 | 0.00 | 0.00 | 44 | 1014.9 |
| 20260503233604 | 61 | 169 | 0.0 | 0.0 | 0.00 | 0.00 | 0.00 | 41 | 1014.8 |
| 20260503233006 | 61 | 169 | 0.0 | 0.0 | 0.00 | 0.00 | 0.00 | 39 | 1014.8 |
| 20260503232509 | 61 | 169 | 0.0 | 0.0 | 0.00 | 0.00 | 0.00 | 40 | 1014.8 |
| 20260503232102 | 62 | 169 | 0.0 | 0.0 | 0.00 | 0.00 | 0.00 | 37 | 1014.8 |
| 20260503231502 | 62 | 169 | 0.0 | 0.0 | 0.00 | 0.00 | 0.00 | 39 | 1014.7 |
| 20260503231009 | 62 | 169 | 0.0 | 1.0 | 0.00 | 0.00 | 0.00 | 39 | 1014.8 |
| 20260503230604 | 62 | 169 | 0.0 | 1.0 | 0.00 | 0.00 | 0.00 | 38 | 1014.8 |
| 20260503230002 | 63 | 200 | 0.0 | 0.0 | 0.00 | 0.00 | 0.00 | 38 | 1014.8 |
| 20260503225509 | 63 | 200 | 0.0 | 0.0 | 0.00 | 0.00 | 0.00 | 36 | 1014.8 |
| 20260503225103 | 63 | 185 | 0.0 | 0.0 | 0.00 | 0.00 | 0.00 | 37 | 1015.0 |
| 20260503224502 | 63 | 143 | 0.0 | 0.0 | 0.00 | 0.00 | 0.00 | 38 | 1015.0 |
| 20260503224009 | 63 | 198 | 0.0 | 5.0 | 0.00 | 0.00 | 0.00 | 35 | 1015.0 |
| 20260503223604 | 63 | 231 | 0.0 | 5.0 | 0.00 | 0.00 | 0.00 | 35 | 1015.0 |
| 20260503223003 | 63 | 159 | 0.0 | 1.0 | 0.00 | 0.00 | 0.00 | 34 | 1015.0 |
| 20260503222508 | 64 | 166 | 0.0 | 1.0 | 0.00 | 0.00 | 0.00 | 34 | 1015.1 |
| 20260503222104 | 64 | 181 | 0.0 | 0.0 | 0.00 | 0.00 | 0.00 | 34 | 1015.1 |
| 20260503221502 | 64 | 169 | 0.0 | 0.0 | 0.00 | 0.00 | 0.00 | 34 | 1015.1 |
| 20260503221009 | 64 | 77 | 0.0 | 1.0 | 0.00 | 0.00 | 0.00 | 33 | 1015.2 |
| 20260503220602 | 64 | 187 | 0.0 | 2.0 | 0.00 | 0.00 | 0.00 | 38 | 1015.2 |
| 20260503220003 | 64 | 150 | 0.0 | 5.0 | 0.00 | 0.00 | 0.00 | 34 | 1015.4 |
| 20260503215507 | 64 | 190 | 0.0 | 6.0 | 0.00 | 0.00 | 0.00 | 32 | 1015.4 |
| 20260503215102 | 64 | 167 | 0.0 | 6.0 | 0.00 | 0.00 | 0.00 | 34 | 1015.5 |
| 20260503214502 | 65 | 161 | 0.0 | 2.0 | 0.00 | 0.00 | 0.00 | 32 | 1015.4 |
| 20260503214014 | 65 | 154 | 0.0 | 0.0 | 0.00 | 0.00 | 0.00 | 32 | 1015.5 |
| 20260503213605 | 65 | 155 | 0.0 | 1.0 | 0.00 | 0.00 | 0.00 | 32 | 1015.5 |
| 20260503213003 | 65 | 205 | 0.0 | 1.0 | 0.00 | 0.00 | 0.00 | 32 | 1015.5 |
| 20260503212509 | 66 | 187 | 0.0 | 0.0 | 0.00 | 0.00 | 0.00 | 32 | 1015.6 |
| 20260503212103 | 66 | 180 | 0.0 | 7.0 | 0.00 | 0.00 | 0.00 | 31 | 1015.6 |
| 20260503211502 | 67 | 232 | 0.0 | 7.0 | 0.00 | 0.00 | 0.00 | 31 | 1015.8 |
| 20260503211010 | 67 | 183 | 0.0 | 4.0 | 0.00 | 0.00 | 0.00 | 32 | 1015.7 |
| 20260503210602 | 68 | 69 | 0.0 | 4.0 | 0.00 | 0.00 | 0.00 | 29 | 1015.7 |
| 20260503210003 | 68 | 43 | 0.0 | 0.0 | 0.00 | 0.00 | 0.00 | 27 | 1015.7 |
| 20260503205509 | 68 | 151 | 0.0 | 4.0 | 0.00 | 0.00 | 0.00 | 28 | 1015.7 |
| 20260503205104 | 68 | 171 | 0.0 | 7.0 | 0.00 | 0.00 | 0.00 | 29 | 1015.7 |
| 20260503204503 | 69 | 147 | 1.0 | 8.0 | 0.00 | 0.00 | 0.00 | 29 | 1015.8 |
| 20260503204008 | 69 | 182 | 1.0 | 8.0 | 0.00 | 0.00 | 0.00 | 26 | 1015.8 |
| 20260503203602 | 69 | 229 | 0.0 | 5.0 | 0.00 | 0.00 | 0.00 | 29 | 1015.9 |
| 20260503203003 | 68 | 346 | 1.0 | 9.0 | 0.00 | 0.00 | 0.00 | 28 | 1016.1 |
| 20260503202508 | 68 | 207 | 1.0 | 9.0 | 0.00 | 0.00 | 0.00 | 28 | 1016.0 |
| 20260503202106 | 69 | 169 | 1.0 | 8.0 | 0.00 | 0.00 | 0.00 | 28 | 1016.2 |
| 20260503201502 | 69 | 27 | 0.0 | 4.0 | 0.00 | 0.00 | 0.00 | 29 | 1016.3 |
| 20260503201008 | 68 | 157 | 0.0 | 3.0 | 0.00 | 0.00 | 0.00 | 30 | 1016.2 |
| 20260503200606 | 68 | 186 | 0.0 | 3.0 | 0.00 | 0.00 | 0.00 | 29 | 1016.4 |
| 20260503200002 | 68 | 169 | 0.0 | 5.0 | 0.00 | 0.00 | 0.00 | 27 | 1016.5 |
| 20260503195508 | 69 | 143 | 1.0 | 5.0 | 0.00 | 0.00 | 0.00 | 27 | 1016.6 |
| 20260503195102 | 69 | 53 | 0.0 | 8.0 | 0.00 | 0.00 | 0.00 | 30 | 1016.7 |
| 20260503194503 | 68 | 173 | 0.0 | 9.0 | 0.00 | 0.00 | 0.00 | 30 | 1016.6 |
| 20260503194009 | 68 | 349 | 1.0 | 9.0 | 0.00 | 0.00 | 0.00 | 29 | 1016.8 |
| 20260503193602 | 68 | 179 | 0.0 | 5.0 | 0.00 | 0.00 | 0.00 | 29 | 1016.8 |
| 20260503193006 | 68 | 359 | 2.0 | 6.0 | 0.00 | 0.00 | 0.00 | 29 | 1016.8 |
| 20260503192512 | 68 | 168 | 2.0 | 6.0 | 0.00 | 0.00 | 0.00 | 29 | 1017.0 |
| 20260503192102 | 68 | 161 | 1.0 | 4.0 | 0.00 | 0.00 | 0.00 | 30 | 1017.0 |
| 20260503191502 | 67 | 309 | 0.0 | 7.0 | 0.00 | 0.00 | 0.00 | 30 | 1017.0 |
| 20260503191009 | 67 | 185 | 2.0 | 7.0 | 0.00 | 0.00 | 0.00 | 29 | 1017.1 |
| 20260503190604 | 67 | 197 | 0.0 | 5.0 | 0.00 | 0.00 | 0.00 | 31 | 1017.2 |
| 20260503190005 | 66 | 167 | 0.0 | 5.0 | 0.00 | 0.00 | 0.00 | 31 | 1017.3 |
| 20260503185508 | 66 | 299 | 0.0 | 4.0 | 0.00 | 0.00 | 0.00 | 29 | 1017.5 |
| 20260503185103 | 65 | 216 | 1.0 | 6.0 | 0.00 | 0.00 | 0.00 | 29 | 1017.5 |
| 20260503184503 | 65 | 203 | 2.0 | 6.0 | 0.00 | 0.00 | 0.00 | 30 | 1017.5 |
| 20260503184009 | 65 | 115 | 0.0 | 6.0 | 0.00 | 0.00 | 0.00 | 30 | 1017.5 |
| 20260503183602 | 65 | 20 | 1.0 | 7.0 | 0.00 | 0.00 | 0.00 | 31 | 1017.6 |
| 20260503183002 | 65 | 122 | 1.0 | 7.0 | 0.00 | 0.00 | 0.00 | 32 | 1017.8 |
| 20260503182513 | 64 | 227 | 0.0 | 5.0 | 0.00 | 0.00 | 0.00 | 31 | 1017.7 |
| 20260503182102 | 64 | 25 | 0.0 | 1.0 | 0.00 | 0.00 | 0.00 | 32 | 1017.7 |
| 20260503181505 | 64 | 134 | 0.0 | 1.0 | 0.00 | 0.00 | 0.00 | 34 | 1018.0 |
| 20260503181010 | 64 | 184 | 0.0 | 8.0 | 0.00 | 0.00 | 0.00 | 33 | 1018.0 |
| 20260503180602 | 64 | 201 | 0.0 | 10.0 | 0.00 | 0.00 | 0.00 | 30 | 1018.0 |
| 20260503180003 | 64 | 186 | 0.0 | 5.0 | 0.00 | 0.00 | 0.00 | 33 | 1018.1 |
| 20260503175507 | 64 | 160 | 0.0 | 4.0 | 0.00 | 0.00 | 0.00 | 32 | 1018.1 |
| 20260503175104 | 64 | 76 | 0.0 | 1.0 | 0.00 | 0.00 | 0.00 | 32 | 1018.2 |
| 20260503174504 | 64 | 302 | 0.0 | 6.0 | 0.00 | 0.00 | 0.00 | 34 | 1018.3 |
| 20260503174010 | 64 | 161 | 0.0 | 1.0 | 0.00 | 0.00 | 0.00 | 33 | 1018.3 |
| 20260503173602 | 64 | 72 | 0.0 | 1.0 | 0.00 | 0.00 | 0.00 | 34 | 1018.3 |
| 20260503173008 | 64 | 290 | 0.0 | 4.0 | 0.00 | 0.00 | 0.00 | 34 | 1018.5 |
| 20260503172509 | 64 | 3 | 0.0 | 4.0 | 0.00 | 0.00 | 0.00 | 33 | 1018.3 |
| 20260503172105 | 64 | 342 | 0.0 | 1.0 | 0.00 | 0.00 | 0.00 | 33 | 1018.5 |
| 20260503171503 | 64 | 34 | 0.0 | 6.0 | 0.00 | 0.00 | 0.00 | 34 | 1018.7 |
| 20260503171008 | 64 | 35 | 0.0 | 1.0 | 0.00 | 0.00 | 0.00 | 32 | 1018.7 |
| 20260503170603 | 63 | 72 | 0.0 | 3.0 | 0.00 | 0.00 | 0.00 | 33 | 1018.8 |
| 20260503151008 | 57 | 7 | 0.0 | 5.0 | 0.00 | 0.00 | 0.00 | 40 | 1019.8 |
| 20260503150601 | 57 | 349 | 0.0 | 5.0 | 0.00 | 0.00 | 0.00 | 42 | 1019.7 |
| 20260503131009 | 45 | 104 | 0.0 | 1.0 | 0.00 | 0.00 | 0.00 | 78 | 1019.4 |
| 20260503130602 | 44 | 23 | 0.0 | 1.0 | 0.00 | 0.00 | 0.00 | 81 | 1019.4 |
| 20260503110603 | 32 | 221 | 0.0 | 0.0 | 0.00 | 0.00 | 0.00 | 94 | 1018.6 |
| 20260503081503 | 35 | 221 | 0.0 | 0.0 | 0.00 | 0.00 | 0.00 | 93 | 1016.5 |
| 20260503081009 | 35 | 221 | 0.0 | 0.0 | 0.00 | 0.00 | 0.00 | 93 | 1016.5 |
| 20260503080605 | 35 | 221 | 0.0 | 0.0 | 0.00 | 0.00 | 0.00 | 93 | 1016.5 |
| 20260503072512 | 35 | 221 | 0.0 | 0.0 | 0.00 | 0.00 | 0.00 | 92 | 1015.8 |
| 20260503072104 | 35 | 221 | 0.0 | 0.0 | 0.00 | 0.00 | 0.00 | 92 | 1015.8 |
| 20260503071504 | 36 | 221 | 0.0 | 0.0 | 0.00 | 0.00 | 0.00 | 92 | 1015.7 |
| 20260503071009 | 36 | 221 | 0.0 | 0.0 | 0.00 | 0.00 | 0.00 | 92 | 1015.7 |
| 20260503070604 | 36 | 221 | 0.0 | 0.0 | 0.00 | 0.00 | 0.00 | 92 | 1015.7 |
| 20260503055103 | 37 | 221 | 0.0 | 0.0 | 0.00 | 0.00 | 0.00 | 91 | 1015.3 |
| 20260503054508 | 37 | 221 | 0.0 | 0.0 | 0.00 | 0.00 | 0.00 | 91 | 1015.3 |
| 20260503054009 | 37 | 221 | 0.0 | 0.0 | 0.00 | 0.00 | 0.00 | 91 | 1015.3 |
| 20260503053604 | 37 | 221 | 0.0 | 0.0 | 0.00 | 0.00 | 0.00 | 91 | 1015.3 |
| 20260503053007 | 38 | 221 | 0.0 | 0.0 | 0.00 | 0.00 | 0.00 | 91 | 1015.2 |
| 20260503052509 | 38 | 221 | 0.0 | 0.0 | 0.00 | 0.00 | 0.00 | 91 | 1015.2 |
| 20260503052104 | 38 | 221 | 0.0 | 0.0 | 0.00 | 0.00 | 0.00 | 91 | 1015.2 |
| 20260503051504 | 38 | 221 | 0.0 | 0.0 | 0.00 | 0.00 | 0.00 | 91 | 1015.3 |
| 20260503051010 | 38 | 221 | 0.0 | 0.0 | 0.00 | 0.00 | 0.00 | 91 | 1015.2 |
| 20260503050605 | 38 | 221 | 0.0 | 0.0 | 0.00 | 0.00 | 0.00 | 91 | 1015.2 |
| 20260503050003 | 39 | 221 | 0.0 | 0.0 | 0.00 | 0.00 | 0.00 | 91 | 1015.2 |
| 20260503045509 | 39 | 221 | 0.0 | 0.0 | 0.00 | 0.00 | 0.00 | 90 | 1015.2 |
| 20260503045104 | 39 | 221 | 0.0 | 0.0 | 0.00 | 0.00 | 0.00 | 90 | 1015.2 |
| 20260503044504 | 39 | 221 | 0.0 | 0.0 | 0.00 | 0.00 | 0.00 | 90 | 1015.1 |
| 20260503044011 | 39 | 221 | 0.0 | 0.0 | 0.00 | 0.00 | 0.00 | 90 | 1015.0 |
| 20260503043603 | 39 | 221 | 0.0 | 0.0 | 0.00 | 0.00 | 0.00 | 90 | 1015.0 |
| 20260503043003 | 39 | 221 | 0.0 | 0.0 | 0.00 | 0.00 | 0.00 | 90 | 1014.9 |
| 20260503042509 | 40 | 221 | 0.0 | 0.0 | 0.00 | 0.00 | 0.00 | 90 | 1014.9 |
| 20260503042104 | 40 | 221 | 0.0 | 0.0 | 0.00 | 0.00 | 0.00 | 90 | 1014.9 |
| 20260503041503 | 40 | 221 | 0.0 | 0.0 | 0.00 | 0.00 | 0.00 | 90 | 1014.8 |
| 20260503041004 | 40 | 221 | 0.0 | 0.0 | 0.00 | 0.00 | 0.00 | 90 | 1014.7 |
| 20260503040606 | 40 | 221 | 0.0 | 0.0 | 0.00 | 0.00 | 0.00 | 90 | 1014.6 |
| 20260503040003 | 40 | 221 | 0.0 | 0.0 | 0.00 | 0.00 | 0.00 | 90 | 1014.5 |
| 20260503035510 | 41 | 221 | 0.0 | 0.0 | 0.00 | 0.00 | 0.00 | 90 | 1014.5 |
| 20260503035104 | 41 | 221 | 0.0 | 0.0 | 0.00 | 0.00 | 0.00 | 90 | 1014.5 |
| 20260503034504 | 41 | 221 | 0.0 | 0.0 | 0.00 | 0.00 | 0.00 | 89 | 1014.5 |
| 20260503034012 | 41 | 221 | 0.0 | 0.0 | 0.00 | 0.00 | 0.00 | 89 | 1014.5 |
| 20260503033604 | 41 | 221 | 0.0 | 0.0 | 0.00 | 0.00 | 0.00 | 89 | 1014.5 |
| 20260503033005 | 42 | 221 | 0.0 | 0.0 | 0.00 | 0.00 | 0.00 | 89 | 1014.5 |
| 20260503032509 | 42 | 221 | 0.0 | 0.0 | 0.00 | 0.00 | 0.00 | 88 | 1014.5 |
| 20260503032106 | 42 | 221 | 0.0 | 0.0 | 0.00 | 0.00 | 0.00 | 88 | 1014.4 |
| 20260503031504 | 42 | 221 | 0.0 | 0.0 | 0.00 | 0.00 | 0.00 | 88 | 1014.2 |
| 20260503031010 | 42 | 221 | 0.0 | 0.0 | 0.00 | 0.00 | 0.00 | 88 | 1014.2 |
| 20260503030602 | 43 | 221 | 0.0 | 0.0 | 0.00 | 0.00 | 0.00 | 88 | 1014.2 |
| 20260503030004 | 43 | 221 | 0.0 | 0.0 | 0.00 | 0.00 | 0.00 | 88 | 1014.2 |
| 20260503025509 | 43 | 221 | 0.0 | 0.0 | 0.00 | 0.00 | 0.00 | 87 | 1014.1 |
| 20260503025104 | 43 | 221 | 0.0 | 0.0 | 0.00 | 0.00 | 0.00 | 87 | 1014.2 |
| 20260503024504 | 43 | 221 | 0.0 | 0.0 | 0.00 | 0.00 | 0.00 | 87 | 1014.1 |
| 20260503024010 | 44 | 221 | 0.0 | 0.0 | 0.00 | 0.00 | 0.00 | 87 | 1014.2 |
| 20260503023604 | 44 | 221 | 0.0 | 0.0 | 0.00 | 0.00 | 0.00 | 87 | 1014.2 |
| 20260503023011 | 44 | 221 | 0.0 | 0.0 | 0.00 | 0.00 | 0.00 | 87 | 1014.0 |
| 20260503022510 | 44 | 221 | 0.0 | 0.0 | 0.00 | 0.00 | 0.00 | 87 | 1014.0 |
| 20260503022103 | 44 | 221 | 0.0 | 0.0 | 0.00 | 0.00 | 0.00 | 86 | 1014.0 |
| 20260503021504 | 45 | 221 | 0.0 | 0.0 | 0.00 | 0.00 | 0.00 | 86 | 1014.0 |
| 20260503021010 | 45 | 221 | 0.0 | 0.0 | 0.00 | 0.00 | 0.00 | 86 | 1013.9 |
| 20260503020604 | 45 | 221 | 0.0 | 0.0 | 0.00 | 0.00 | 0.00 | 85 | 1013.9 |
| 20260503020005 | 45 | 221 | 0.0 | 0.0 | 0.00 | 0.00 | 0.00 | 85 | 1013.9 |
| 20260503015510 | 46 | 221 | 0.0 | 0.0 | 0.00 | 0.00 | 0.00 | 84 | 1013.9 |
| 20260503015103 | 46 | 221 | 0.0 | 0.0 | 0.00 | 0.00 | 0.00 | 84 | 1013.7 |
| 20260503014507 | 46 | 221 | 0.0 | 0.0 | 0.00 | 0.00 | 0.00 | 83 | 1013.5 |
| 20260503014010 | 46 | 221 | 0.0 | 0.0 | 0.00 | 0.00 | 0.00 | 83 | 1013.4 |
| 20260503013603 | 47 | 221 | 0.0 | 0.0 | 0.00 | 0.00 | 0.00 | 82 | 1013.3 |
| 20260503013003 | 47 | 221 | 0.0 | 0.0 | 0.00 | 0.00 | 0.00 | 81 | 1013.1 |
| 20260503012511 | 48 | 221 | 0.0 | 0.0 | 0.00 | 0.00 | 0.00 | 80 | 1013.1 |
| 20260503012104 | 48 | 221 | 0.0 | 0.0 | 0.00 | 0.00 | 0.00 | 79 | 1013.0 |
| 20260503011506 | 48 | 221 | 0.0 | 1.0 | 0.00 | 0.00 | 0.00 | 79 | 1012.9 |
| 20260503011009 | 49 | 221 | 0.0 | 0.0 | 0.00 | 0.00 | 0.00 | 77 | 1012.9 |